TimeCST,TemperatureF,Dew PointF,Humidity,Sea Level PressureIn,VisibilityMPH,Wind Direction,Wind SpeedMPH,Gust SpeedMPH,PrecipitationIn,Events,Conditions,WindDirDegrees,DateUTC
12:53 AM,24.1,17.1,75,30.36,10.0,NNE,8.1,-,N/A,,Clear,20,2013-01-15 06:53:00
1:53 AM,19.9,16.0,85,30.35,10.0,NW,4.6,-,N/A,,Clear,320,2013-01-15 07:53:00
2:53 AM,17.6,15.8,93,30.33,10.0,North,8.1,-,N/A,,Clear,350,2013-01-15 08:53:00
3:53 AM,19.0,16.0,88,30.34,10.0,Calm,Calm,-,N/A,,Clear,0,2013-01-15 09:53:00
4:53 AM,17.1,14.0,88,30.34,10.0,NNW,4.6,-,N/A,,Partly Cloudy,330,2013-01-15 10:53:00
5:53 AM,19.0,16.0,88,30.32,10.0,NNW,5.8,-,N/A,,Clear,340,2013-01-15 11:53:00
6:53 AM,21.0,18.0,88,30.30,10.0,North,6.9,-,N/A,,Clear,10,2013-01-15 12:53:00
7:53 AM,21.9,18.0,85,30.35,10.0,NW,4.6,-,N/A,,Overcast,310,2013-01-15 13:53:00
8:53 AM,23.0,19.0,85,30.35,10.0,NNW,8.1,-,N/A,,Overcast,330,2013-01-15 14:53:00
9:53 AM,24.1,19.9,84,30.35,10.0,NNW,9.2,-,N/A,,Scattered Clouds,340,2013-01-15 15:53:00
10:53 AM,28.9,19.0,67,30.31,10.0,North,9.2,-,N/A,,Mostly Cloudy,360,2013-01-15 16:53:00
11:53 AM,32.0,17.1,54,30.28,10.0,NNE,9.2,-,N/A,,Mostly Cloudy,20,2013-01-15 17:53:00
12:53 PM,34.0,16.0,48,30.24,10.0,North,9.2,-,N/A,,Overcast,10,2013-01-15 18:53:00
1:53 PM,35.1,17.1,48,30.23,10.0,North,10.4,-,N/A,,Overcast,350,2013-01-15 19:53:00
2:53 PM,35.1,12.9,40,30.23,10.0,North,9.2,-,N/A,,Overcast,10,2013-01-15 20:53:00
3:53 PM,35.1,12.9,40,30.25,10.0,North,10.4,-,N/A,,Overcast,360,2013-01-15 21:53:00
4:53 PM,35.1,12.0,39,30.26,10.0,NNE,8.1,-,N/A,,Overcast,20,2013-01-15 22:53:00
5:53 PM,33.1,12.9,43,30.27,10.0,North,8.1,-,N/A,,Overcast,350,2013-01-15 23:53:00
6:53 PM,30.9,12.0,46,30.27,10.0,NNW,6.9,-,N/A,,Mostly Cloudy,340,2013-01-16 00:53:00
7:53 PM,28.0,10.9,49,30.25,10.0,North,6.9,-,N/A,,Partly Cloudy,350,2013-01-16 01:53:00
8:53 PM,25.0,12.0,58,30.26,10.0,NW,3.5,-,N/A,,Clear,320,2013-01-16 02:53:00
9:53 PM,25.0,12.0,58,30.26,10.0,Calm,Calm,-,N/A,,Clear,0,2013-01-16 03:53:00
10:53 PM,25.0,12.9,60,30.25,10.0,NW,4.6,-,N/A,,Clear,310,2013-01-16 04:53:00
11:53 PM,24.1,14.0,65,30.25,10.0,Calm,Calm,-,N/A,,Clear,0,2013-01-16 05:53:00